Satellite Precipitation Estimates (TXUS20 KWBC)
Issued by NWS

Home | Current Version | Previous Version | Text Only | Print | Product List | Glossary On
Versions: 1 2 3 4 5 6
000
SPTD31 TTPP 181846
SPECI
TTCP 181841Z 11014G34KT 8000 SCT012CB 31/24 Q1012 TEMPO SHRA
RMK JP-S,SE,S CB-S,SE,NNW=


USA.gov is the U.S. government's official web portal to all federal, state and local government web resources and services.